Location: San Antonio
(29.4240°N, 98.4930°W)
Time: 10:05:54
(UTC-05:00)

Courier 1B - Pass Details

Date: 21 July 2024
Orbit: 962 x 1208 km, 28.3° (Epoch: 23 June)

Event Time Altitude Azimuth Distance (km) Brightness Sun altitude
Rises 13:58:19 0° 249° (WSW) 4,103 10.9 80.0°
Reaches altitude 10° 14:01:12 10° 246° (WSW) 3,135 10.4 79.7°
Maximum altitude 14:08:57 66° 166° (SSE) 1,276 9.9 78.8°
Drops below altitude 10° 14:16:26 10° 86° (E) 3,027 10.1 77.7°
Sets 14:19:11 0° 83° (E) 3,954 10.6 77.3°
